When you browse on this site, cookies collect data to enhance your experience and personalize the content and advertising you see.
Visit our Privacy Policy to learn more. By continuing to use the site, you agree to this use of cookies and data.
  • In Latvia
  • List of Countries
  • For 7 days
  • Water Temperature
  • Satellite Maps
  • Weather Map
  • Weather Widgets
  • user-avatar
    Login

    Hourly Weather Innsbruck

    Today, 20 July, Saturday

    Time Temperature Precipitation Wind Pressure Humidity
    00:00 +8°C° 0 mm 1 mps 598 mmHg 90%
    01:00 +7°C° 0 mm 2 mps 598 mmHg 90%
    02:00 +7°C° 0 mm 2 mps 598 mmHg 89%
    03:00 +7°C° 0 mm 2 mps 598 mmHg 89%
    04:00 +7°C° 0 mm 2 mps 598 mmHg 88%
    05:00 +8°C° 0 mm 2 mps 599 mmHg 86%
    06:00 +11°C° 0 mm 1 mps 600 mmHg 83%
    07:00 +13°C° 0 mm 1 mps 600 mmHg 81%
    08:00 +15°C° 0 mm 1 mps 601 mmHg 72%
    09:00 +18°C° 0 mm 1 mps 602 mmHg 63%
    10:00 +20°C° 0 mm 1 mps 603 mmHg 54%
    11:00 +21°C° 0.5 mm 1 mps 603 mmHg 52%
    12:00 +21°C° 0.5 mm 1 mps 603 mmHg 50%
    13:00 +21°C° 0.5 mm 1 mps 603 mmHg 49%
    14:00 +21°C° 0.6 mm 1 mps 603 mmHg 50%
    15:00 +21°C° 0.6 mm 1 mps 603 mmHg 52%
    16:00 +20°C° 0.6 mm 1 mps 603 mmHg 53%
    17:00 +18°C° 1.7 mm 1 mps 602 mmHg 65%
    18:00 +15°C° 1.7 mm 2 mps 601 mmHg 78%
    19:00 +13°C° 1.7 mm 2 mps 601 mmHg 90%
    20:00 +11°C° 0.5 mm 1 mps 600 mmHg 90%
    21:00 +10°C° 0.5 mm 1 mps 600 mmHg 89%
    22:00 +9°C° 0.5 mm 1 mps 600 mmHg 89%
    23:00 +9°C° 0 mm 1 mps 600 mmHg 88%

    Tomorrow, 21 July, Sunday

    Time Temperature Precipitation Wind Pressure Humidity
    00:00 +9°C° 0 mm 1 mps 600 mmHg 87%
    01:00 +10°C° 0 mm 1 mps 601 mmHg 86%
    02:00 +10°C° 0 mm 1 mps 601 mmHg 86%
    03:00 +10°C° 0 mm 1 mps 600 mmHg 85%
    04:00 +10°C° 0 mm 1 mps 600 mmHg 84%
    05:00 +11°C° 0 mm 1 mps 601 mmHg 83%
    06:00 +11°C° 0 mm 0 mps 602 mmHg 81%
    07:00 +12°C° 0 mm 0 mps 602 mmHg 79%
    08:00 +14°C° 0.4 mm 1 mps 603 mmHg 77%
    09:00 +15°C° 0.4 mm 1 mps 603 mmHg 75%
    10:00 +16°C° 0.4 mm 2 mps 604 mmHg 73%
    11:00 +16°C° 0.8 mm 2 mps 604 mmHg 73%
    12:00 +17°C° 0.8 mm 2 mps 604 mmHg 74%
    13:00 +17°C° 0.8 mm 2 mps 605 mmHg 74%
    14:00 +17°C° 0.8 mm 2 mps 605 mmHg 75%
    15:00 +17°C° 0.8 mm 2 mps 605 mmHg 77%
    16:00 +17°C° 0.8 mm 2 mps 605 mmHg 78%
    17:00 +16°C° 0.4 mm 2 mps 604 mmHg 82%
    18:00 +15°C° 0.4 mm 1 mps 604 mmHg 86%
    19:00 +14°C° 0.4 mm 1 mps 604 mmHg 89%
    20:00 +12°C° 0.1 mm 1 mps 603 mmHg 91%
    21:00 +11°C° 0.1 mm 1 mps 603 mmHg 93%
    22:00 +9°C° 0.1 mm 1 mps 603 mmHg 95%
    23:00 +9°C° 0 mm 1 mps 602 mmHg 95%

    Day after tomorrow, 22 July, Monday

    Time Temperature Precipitation Wind Pressure Humidity
    00:00 +8°C° 0 mm 1 mps 602 mmHg 94%
    01:00 +8°C° 0 mm 1 mps 602 mmHg 93%
    02:00 +8°C° 0 mm 1 mps 602 mmHg 92%
    03:00 +8°C° 0 mm 1 mps 602 mmHg 90%
    04:00 +6°C° 0 mm 0 mps 602 mmHg 89%
    05:00 +8°C° 0 mm 0 mps 603 mmHg 86%
    06:00 +10°C° 0 mm 0 mps 604 mmHg 82%
    07:00 +12°C° 0 mm 0 mps 604 mmHg 79%
    08:00 +14°C° 0 mm 0 mps 605 mmHg 71%
    09:00 +18°C° 0 mm 1 mps 606 mmHg 64%
    10:00 +20°C° 0 mm 1 mps 607 mmHg 56%
    11:00 +21°C° 0 mm 1 mps 607 mmHg 52%
    12:00 +21°C° 0 mm 2 mps 608 mmHg 49%
    13:00 +23°C° 0 mm 2 mps 608 mmHg 45%
    14:00 +21°C° 0 mm 2 mps 608 mmHg 47%
    15:00 +21°C° 0 mm 2 mps 607 mmHg 48%
    16:00 +21°C° 0 mm 3 mps 607 mmHg 50%
    17:00 +19°C° 0 mm 2 mps 606 mmHg 60%
    18:00 +18°C° 0 mm 2 mps 606 mmHg 70%
    19:00 +16°C° 0 mm 1 mps 605 mmHg 80%
    20:00 +15°C° 0 mm 1 mps 605 mmHg 85%
    21:00 +13°C° 0 mm 1 mps 604 mmHg 90%
    22:00 +10°C° 0 mm 0 mps 603 mmHg 95%
    23:00 +10°C° 0 mm 0 mps 603 mmHg 94%

    23 July, Tuesday

    Time Temperature Precipitation Wind Pressure Humidity
    00:00 +9°C° 0 mm 0 mps 603 mmHg 94%
    01:00 +9°C° 0 mm 0 mps 603 mmHg 94%
    02:00 +9°C° 0 mm 0 mps 602 mmHg 93%
    03:00 +8°C° 0 mm 0 mps 602 mmHg 92%
    04:00 +8°C° 0 mm 0 mps 602 mmHg 91%
    05:00 +10°C° 0 mm 0 mps 603 mmHg 84%
    06:00 +12°C° 0 mm 0 mps 604 mmHg 77%
    07:00 +14°C° 0 mm 0 mps 604 mmHg 71%
    08:00 +18°C° 0 mm 1 mps 605 mmHg 61%
    09:00 +20°C° 0 mm 1 mps 606 mmHg 52%
    10:00 +22°C° 0 mm 1 mps 607 mmHg 42%
    11:00 +23°C° 0 mm 2 mps 607 mmHg 39%
    12:00 +24°C° 0 mm 2 mps 607 mmHg 36%
    13:00 +25°C° 0 mm 2 mps 607 mmHg 33%
    14:00 +25°C° 0 mm 2 mps 607 mmHg 34%
    15:00 +24°C° 0 mm 2 mps 606 mmHg 35%
    16:00 +24°C° 0 mm 2 mps 606 mmHg 36%
    17:00 +21°C° 0 mm 2 mps 605 mmHg 47%
    18:00 +19°C° 0 mm 2 mps 605 mmHg 59%
    19:00 +19°C° 0 mm 1 mps 604 mmHg 70%
    20:00 +16°C° 0 mm 1 mps 603 mmHg 74%
    21:00 +14°C° 0 mm 1 mps 602 mmHg 79%
    22:00 +11°C° 0 mm 0 mps 601 mmHg 83%
    23:00 +11°C° 0 mm 1 mps 601 mmHg 82%

    24 July, Wednesday

    Time Temperature Precipitation Wind Pressure Humidity
    00:00 +11°C° 0 mm 1 mps 601 mmHg 81%
    01:00 +11°C° 0 mm 1 mps 601 mmHg 80%
    02:00 +11°C° 0 mm 1 mps 601 mmHg 81%
    03:00 +11°C° 0 mm 1 mps 600 mmHg 82%
    04:00 +10°C° 0 mm 1 mps 600 mmHg 82%
    05:00 +12°C° 0 mm 1 mps 601 mmHg 77%
    06:00 +14°C° 0 mm 0 mps 602 mmHg 72%
    07:00 +16°C° 0 mm 0 mps 603 mmHg 68%
    08:00 +18°C° 0 mm 0 mps 604 mmHg 60%
    09:00 +22°C° 0 mm 1 mps 605 mmHg 52%
    10:00 +24°C° 0 mm 1 mps 606 mmHg 44%
    11:00 +24°C° 0 mm 1 mps 606 mmHg 40%
    12:00 +25°C° 0 mm 2 mps 606 mmHg 37%
    13:00 +26°C° 0 mm 2 mps 606 mmHg 33%
    14:00 +26°C° 0 mm 2 mps 606 mmHg 35%
    15:00 +25°C° 0 mm 2 mps 605 mmHg 36%
    16:00 +25°C° 0 mm 2 mps 605 mmHg 38%
    17:00 +23°C° 0 mm 2 mps 605 mmHg 49%
    18:00 +20°C° 0 mm 2 mps 604 mmHg 59%
    19:00 +20°C° 0 mm 1 mps 603 mmHg 70%
    20:00 +18°C° 0 mm 1 mps 603 mmHg 75%
    21:00 +15°C° 0 mm 1 mps 602 mmHg 80%
    22:00 +13°C° 0 mm 0 mps 602 mmHg 84%
    23:00 +12°C° 0 mm 0 mps 602 mmHg 84%

    25 July, Thursday

    Time Temperature Precipitation Wind Pressure Humidity
    00:00 +13°C° 0 mm 1 mps 601 mmHg 83%
    01:00 +13°C° 0 mm 1 mps 601 mmHg 83%
    02:00 +13°C° 0 mm 1 mps 601 mmHg 82%
    03:00 +13°C° 0 mm 1 mps 601 mmHg 82%
    04:00 +13°C° 0 mm 1 mps 601 mmHg 81%
    05:00 +14°C° 0 mm 1 mps 602 mmHg 78%
    06:00 +16°C° 0 mm 1 mps 602 mmHg 75%
    07:00 +18°C° 0 mm 1 mps 603 mmHg 72%
    08:00 +20°C° 0 mm 1 mps 604 mmHg 65%
    09:00 +22°C° 0 mm 1 mps 605 mmHg 58%
    10:00 +24°C° 0 mm 1 mps 605 mmHg 52%
    11:00 +25°C° 0.3 mm 1 mps 605 mmHg 49%
    12:00 +25°C° 0.3 mm 1 mps 606 mmHg 46%
    13:00 +26°C° 0.3 mm 1 mps 606 mmHg 43%
    14:00 +25°C° 0.7 mm 1 mps 605 mmHg 48%
    15:00 +24°C° 0.7 mm 1 mps 604 mmHg 52%
    16:00 +23°C° 0.7 mm 1 mps 604 mmHg 56%
    17:00 +21°C° 0.7 mm 1 mps 603 mmHg 64%
    18:00 +20°C° 0.7 mm 1 mps 602 mmHg 72%
    19:00 +18°C° 0.7 mm 1 mps 602 mmHg 79%
    20:00 +16°C° 0.2 mm 1 mps 602 mmHg 80%
    21:00 +15°C° 0.2 mm 2 mps 601 mmHg 81%
    22:00 +14°C° 0.2 mm 2 mps 601 mmHg 82%
    23:00 +14°C° 0 mm 2 mps 601 mmHg 83%
    Show more